AirNav   Pilot Hours Calculator
 
 276 users online  

F32 Healdton Municipal Airport
Healdton, Oklahoma, USA

GOING TO HEALDTON?


FAA INFORMATION EFFECTIVE 10 OCTOBER 2019

Location

FAA Identifier: F32
Lat/Long: 34-15-17.6200N 097-28-22.5400W
34-15.293667N 097-28.375667W
34.2548944,-97.4729278
(estimated)
Elevation: 955.9 ft. / 291 m (estimated)
Variation: 07E (1985)
From city: 2 miles NE of HEALDTON, OK
Time zone: UTC -5 (UTC -6 during Standard Time)
Zip code: 73438

Airport Operations

Airport use: Open to the public
Activation date: 05/1957
Control tower: no
ARTCC: FORT WORTH CENTER
FSS: MC ALESTER FLIGHT SERVICE STATION
NOTAMs facility: MLC (NOTAM-D service available)
Attendance: UNATNDD
Wind indicator: yes
Segmented circle: no

Airport Communications

CTAF: 122.9
WX AWOS-3 at 1F0 (19 nm E): 118.15 (580-226-1536)

Nearby radio navigation aids

VOR radial/distance  VOR name  Freq  Var
ADMr274/15.3ARDMORE VORTAC116.7006E

Airport Services

Parking: tiedowns
Airframe service: NONE
Powerplant service: NONE
Bottled oxygen: NONE
Bulk oxygen: NONE

Runway Information

Runway 17/35

Dimensions: 3020 x 60 ft. / 920 x 18 m
Surface: asphalt, in good condition
Weight bearing capacity: 
Single wheel: 12.5
RUNWAY 17  RUNWAY 35
Latitude: 34-15.542667N34-15.044667N
Longitude: 097-28.376667W097-28.374667W
Elevation: 954.4 ft.955.9 ft.
Traffic pattern: leftleft
Markings: basic, in good conditionbasic, in good condition
Obstructions: none28 ft. tree, 522 ft. from runway, 135 ft. left of centerline, 11:1 slope to clear

Airport Ownership and Management from official FAA records

Ownership: Publicly-owned
Owner: CITY OF HEALDTON
CITY HALL 167 FRANKLIN ST
HEALDTON, OK 73438
Phone 580-229-1283
Manager: SALLY JANS
PO BOX 926
HEALDTON, OK 73438
Phone 580-229-1283
CITY MANAGER.

Airport Operational Statistics

Aircraft operations: avg 50/month *
100% transient general aviation
* for 12-month period ending 08 August 2017

Additional Remarks

DAYLIGHT OPERATIONS ONLY.
FOR CD CTC FORT WORTH ARTCC AT 817-858-7584.

Instrument Procedures

There are no published instrument procedures at F32.

Some nearby airports with instrument procedures:

1F0 - Ardmore Downtown Executive Airport (19 nm E)
KADM - Ardmore Municipal Airport (23 nm E)
KDUC - Halliburton Field Airport (27 nm NW)
KPVJ - Pauls Valley Municipal Airport (30 nm NE)
1F4 - Madill Municipal Airport (34 nm E)
 
Loc | Ops | Rwys | IFR | FBO | Links
Com | Nav | Svcs | Stats | Notes
Area around F32 (Healdton Municipal Airport)
 
Road maps at: MapQuest Bing Google
 
Aerial photo
WARNING: Photo may not be current or correct
Aerial photo of F32 (Healdton Municipal Airport)
Photo by Jonathan Lofton
Photo taken 08-Oct-2014
looking south.

Do you have a better or more recent aerial photo of Healdton Municipal Airport that you would like to share? If so, please send us your photo.

 
Sectional chart

 
Airport distance calculator
Flying to Healdton Municipal Airport? Find the distance to fly.

From to F32

Sunrise and sunset
Times for 14-Oct-2019
 Local
(UTC-5)
 Zulu
(UTC)
Morning civil twilight07:1012:10
Sunrise07:3512:35
Sunset18:5623:56
Evening civil twilight19:2200:22

Current date and time
Zulu (UTC)  14-Oct-2019 09:46:22
Local (UTC-5)  14-Oct-2019 04:46:22
 
METAR
K1F0 
19nm E 
140930Z AUTO 00000KT 10SM CLR 12/10 A3000 RMK AO2
KADM 
23nm E 
140935Z AUTO 00000KT 10SM CLR 12/11 A3000 RMK AO2 T01210108
KDUC 
28nm NW 
140935Z AUTO 12009KT 10SM CLR 13/09 A2997 RMK AO2 T01320092
KPVJ 
30nm NE 
140935Z AUTO 13004KT 10SM CLR 12/10 A2998 RMK AO2 T01180100
TAF
KLAW 
50nm W 
140520Z 1406/1506 11006KT P6SM SKC FM141400 16009KT P6SM SCT250 FM141900 18013G18KT P6SM SCT060 SCT250
NOTAMs
Click for the latest NOTAMs
NOTAMs are issued by the DoD/FAA and will open in a separate window not controlled by AirNav.

 

 
 

Would you like to see your business listed on this page?

 If your business provides an interesting product or service to pilots, flight crews, aircraft, or users of the Healdton Municipal Airport, you should consider listing it here.  To start the listing process, click on the button below
 
Add a business
 

Other Pages about Healdton Municipal Airport

Update a link
 
Copyright © AirNav, LLC. All rights reserved. Privacy Policy  Contact